Weather History for Durant, OK

Change the Weather History Date:

Saturday, April 6, 2013

  Actual Average (KADM) Record (KADM)
Temperature  
Mean Temperature 63 °F -  
Max Temperature 75 °F 68 °F 84 °F (2006)
Min Temperature 51 °F 49 °F 33 °F (2007)
Degree Days  
Heating Degree Days 2    
Growing Degree Days 13 (Base 50)    
Moisture  
Dew Point 50 °F    
Average Humidity 66    
Maximum Humidity 88    
Minimum Humidity 38    
Precipitation  
Precipitation 0.00 in - - ()
Sea Level Pressure  
Sea Level Pressure 29.92 in    
Wind  
Wind Speed 11 mph (South)    
Max Wind Speed 24 mph    
Max Gust Speed 33 mph    
Visibility 10 miles    
Events      
Averages and records for this station are not official NWS values.
T = Trace of Precipitation, MM = Missing Value Source: NWS Daily Summary

Daily Weather History Graph

Daily Weather History Graph

Search for Another Location

Airport:

Trip Planner

Search our weather history database for the weather conditions in past years. The results will help you decide how hot, cold, wet, or windy it might be!

Date:

Astronomy

Apr. 06, 2013 Rise Set
Actual Time 7:05 AM CDT 7:50 PM CDT
Civil Twilight 6:40 AM CDT 8:15 PM CDT
Nautical Twilight 6:10 AM CDT 8:45 PM CDT
Astronomical Twilight 5:40 AM CDT 9:16 PM CDT
Moon 4:40 AM CDT (4/6) 4:28 PM CDT (4/6)
Length of Visible Light 13h 35m
Length of Day
12h 44m
Waning Crescent, 15% of the Moon is Illuminated
Apr 6
Waning Crescent
Apr 10
New
Apr 18
First Quarter
Apr 25
Full
May 2
Last Quarter

Hourly Weather History & Observations

Time (CDT) Temp. Dew Point Humidity Pressure Visibility Wind Dir Wind Speed Gust Speed Precip Events Conditions
12:15 AM 53.6 °F 48.2 °F 82% 30.03 in 10.0 mi South 5.8 mph - N/A   Clear
12:35 AM 53.6 °F 48.2 °F 82% 30.02 in 10.0 mi SSE 8.1 mph - N/A   Clear
12:55 AM 53.6 °F 48.2 °F 82% 30.02 in 10.0 mi SSE 6.9 mph - N/A   Clear
1:15 AM 51.8 °F 46.4 °F 82% 30.01 in 10.0 mi South 6.9 mph - N/A   Clear
1:35 AM 51.8 °F 46.4 °F 82% 30.00 in 10.0 mi SSE 8.1 mph - N/A   Clear
1:55 AM 51.8 °F 46.4 °F 82% 30.00 in 10.0 mi SSE 5.8 mph - N/A   Clear
2:15 AM 51.8 °F 46.4 °F 82% 29.99 in 10.0 mi SSE 8.1 mph - N/A   Clear
2:35 AM 51.8 °F 48.2 °F 88% 29.99 in 10.0 mi South 6.9 mph - N/A   Clear
2:55 AM 53.6 °F 48.2 °F 82% 29.98 in 10.0 mi South 6.9 mph - N/A   Clear
3:15 AM 53.6 °F 46.4 °F 77% 29.97 in 10.0 mi SSE 6.9 mph - N/A   Clear
3:35 AM 51.8 °F 46.4 °F 82% 29.96 in 10.0 mi SSE 5.8 mph - N/A   Clear
3:55 AM 51.8 °F 48.2 °F 88% 29.96 in 10.0 mi South 8.1 mph - N/A   Clear
4:15 AM 53.6 °F 48.2 °F 82% 29.96 in 10.0 mi South 9.2 mph - N/A   Clear
4:35 AM 53.6 °F 48.2 °F 82% 29.95 in 10.0 mi South 10.4 mph - N/A   Clear
4:55 AM 53.6 °F 50.0 °F 88% 29.95 in 10.0 mi South 11.5 mph - N/A   Clear
5:15 AM 55.4 °F 50.0 °F 82% 29.95 in 10.0 mi South 9.2 mph - N/A   Clear
5:35 AM 55.4 °F 50.0 °F 82% 29.95 in 10.0 mi South 9.2 mph - N/A   Clear
6:15 AM 53.6 °F 50.0 °F 88% 29.97 in 10.0 mi South 4.6 mph - N/A   Clear
6:35 AM 53.6 °F 50.0 °F 88% 29.97 in 10.0 mi South 6.9 mph - N/A   Clear
6:55 AM 53.6 °F 50.0 °F 88% 29.96 in 10.0 mi South 10.4 mph - N/A   Clear
7:15 AM 55.4 °F 50.0 °F 82% 29.95 in 10.0 mi South 11.5 mph - N/A   Clear
7:35 AM 55.4 °F 50.0 °F 82% 29.94 in 10.0 mi South 16.1 mph - N/A   Clear
7:55 AM 55.4 °F 50.0 °F 82% 29.94 in 10.0 mi South 15.0 mph - N/A   Clear
8:15 AM 55.4 °F 50.0 °F 82% 29.95 in 10.0 mi South 11.5 mph - N/A   Clear
8:35 AM 55.4 °F 50.0 °F 82% 29.94 in 10.0 mi South 15.0 mph - N/A   Clear
8:55 AM 57.2 °F 50.0 °F 77% 29.95 in 10.0 mi South 13.8 mph - N/A   Clear
9:15 AM 59.0 °F 48.2 °F 67% 29.94 in 10.0 mi South 19.6 mph 25.3 mph N/A   Clear
9:35 AM 60.8 °F 46.4 °F 59% 29.94 in 10.0 mi South 24.2 mph - N/A   Clear
9:55 AM 62.6 °F 44.6 °F 52% 29.96 in 10.0 mi SSW 18.4 mph 24.2 mph N/A   Clear
10:15 AM 62.6 °F 42.8 °F 48% 29.96 in 10.0 mi SSW 20.7 mph 28.8 mph N/A   Clear
10:35 AM 64.4 °F 44.6 °F 49% 29.96 in 10.0 mi SSW 20.7 mph 27.6 mph N/A   Clear
10:55 AM 64.4 °F 42.8 °F 45% 29.97 in 10.0 mi South 21.9 mph - N/A   Clear
11:15 AM 66.2 °F 44.6 °F 46% 29.96 in 10.0 mi SSW 21.9 mph 26.5 mph N/A   Clear
11:35 AM 68.0 °F 42.8 °F 40% 29.95 in 10.0 mi South 20.7 mph 29.9 mph N/A   Clear
11:55 AM 68.0 °F 42.8 °F 40% 29.95 in 10.0 mi South 20.7 mph 27.6 mph N/A   Clear
12:15 PM 69.8 °F 42.8 °F 38% 29.94 in 10.0 mi South 18.4 mph 27.6 mph N/A   Clear
12:35 PM 69.8 °F 44.6 °F 40% 29.93 in 10.0 mi South 24.2 mph 33.4 mph N/A   Clear
12:55 PM 69.8 °F 46.4 °F 43% 29.92 in 10.0 mi South 21.9 mph 26.5 mph N/A   Clear
1:15 PM 69.8 °F 48.2 °F 46% 29.91 in 10.0 mi South 19.6 mph 27.6 mph N/A   Clear
1:35 PM 71.6 °F 50.0 °F 46% 29.90 in 10.0 mi South 19.6 mph 26.5 mph N/A   Clear
1:55 PM 71.6 °F 50.0 °F 46% 29.90 in 10.0 mi South 18.4 mph 23.0 mph N/A   Clear
2:15 PM 71.6 °F 48.2 °F 43% 29.89 in 10.0 mi South 17.3 mph 24.2 mph N/A   Clear
2:35 PM 73.4 °F 50.0 °F 44% 29.88 in 10.0 mi South 20.7 mph 26.5 mph N/A   Clear
2:55 PM 73.4 °F 50.0 °F 44% 29.88 in 10.0 mi South 20.7 mph 25.3 mph N/A   Clear
3:15 PM 73.4 °F 50.0 °F 44% 29.87 in 10.0 mi SSW 18.4 mph 26.5 mph N/A   Clear
3:35 PM 73.4 °F 51.8 °F 47% 29.87 in 10.0 mi South 17.3 mph 29.9 mph N/A   Clear
3:55 PM 73.4 °F 51.8 °F 47% 29.86 in 10.0 mi SSW 15.0 mph 26.5 mph N/A   Scattered Clouds
4:15 PM 75.2 °F 51.8 °F 44% 29.86 in 10.0 mi SSW 19.6 mph 25.3 mph N/A   Scattered Clouds
4:35 PM 73.4 °F 51.8 °F 47% 29.86 in 10.0 mi SSW 18.4 mph 23.0 mph N/A   Mostly Cloudy
4:55 PM 73.4 °F 53.6 °F 50% 29.86 in 10.0 mi SSW 15.0 mph 18.4 mph N/A   Mostly Cloudy
5:15 PM 73.4 °F 53.6 °F 50% 29.85 in 10.0 mi SW 13.8 mph - N/A   Overcast
5:35 PM 73.4 °F 53.6 °F 50% 29.86 in 10.0 mi SW 13.8 mph - N/A   Mostly Cloudy
5:55 PM 73.4 °F 53.6 °F 50% 29.86 in 10.0 mi SW 11.5 mph - N/A   Scattered Clouds
6:15 PM 73.4 °F 53.6 °F 50% 29.86 in 10.0 mi SSW 10.4 mph 17.3 mph N/A   Scattered Clouds
6:35 PM 73.4 °F 53.6 °F 50% 29.86 in 10.0 mi SSW 9.2 mph - N/A   Scattered Clouds
6:55 PM 71.6 °F 55.4 °F 57% 29.87 in 10.0 mi South 9.2 mph - N/A   Clear
7:15 PM 69.8 °F 55.4 °F 60% 29.87 in 10.0 mi South 11.5 mph - N/A   Clear
7:35 PM 69.8 °F 55.4 °F 60% 29.87 in 10.0 mi SSE 11.5 mph - N/A   Clear
8:15 PM 66.2 °F 55.4 °F 68% 29.87 in 10.0 mi South 9.2 mph - N/A   Clear
8:35 PM 64.4 °F 55.4 °F 73% 29.88 in 10.0 mi SSE 8.1 mph - N/A   Clear
8:55 PM 64.4 °F 55.4 °F 73% 29.88 in 10.0 mi SSE 5.8 mph - N/A   Clear
9:15 PM 62.6 °F 55.4 °F 77% 29.88 in 10.0 mi SSE 5.8 mph - N/A   Clear
9:35 PM 62.6 °F 55.4 °F 77% 29.88 in 10.0 mi SSE 6.9 mph - N/A   Clear
9:55 PM 62.6 °F 57.2 °F 82% 29.89 in 10.0 mi South 8.1 mph - N/A   Clear
10:15 PM 64.4 °F 57.2 °F 77% 29.89 in 10.0 mi South 10.4 mph - N/A   Clear
10:35 PM 64.4 °F 57.2 °F 77% 29.89 in 10.0 mi South 10.4 mph - N/A   Clear
11:15 PM 64.4 °F 57.2 °F 77% 29.89 in 10.0 mi South 10.4 mph - N/A   Clear
11:35 PM 62.6 °F 55.4 °F 77% 29.89 in 10.0 mi South 10.4 mph - N/A   Clear
11:55 PM 62.6 °F 55.4 °F 77% 29.89 in 10.0 mi South 10.4 mph - N/A   Clear